This is the latest recevied weather packets stored in our database for station/object W1ERB-13. If no packets are shown the sender has not sent any weather packets the latest 10 day(s).
| Time | Temp. | Humidity | Pressure | Rain* | Wind** | Luminosity | Snow |
|---|---|---|---|---|---|---|---|
| 1777417293 | 16.11° C | 49% | 1017.5 hPa | 0 mm | - | 20 W/m² | - |
| 1777416989 | 16.11° C | 48% | 1017.6 hPa | 0 mm | - | 25 W/m² | - |
| 1777416684 | 16.11° C | 48% | 1017.5 hPa | 0 mm | - | 29 W/m² | - |
| 1777416381 | 16.11° C | 48% | 1017.3 hPa | 0 mm | - | 31 W/m² | - |
| 1777416080 | 16.11° C | 48% | 1017.3 hPa | 0 mm | - | 35 W/m² | - |
| 1777415775 | 16.67° C | 46% | 1017.3 hPa | 0 mm | - | 41 W/m² | - |
| 1777415471 | 16.67° C | 46% | 1017.5 hPa | 0 mm | - | 45 W/m² | - |
| 1777415167 | 16.67° C | 47% | 1017.2 hPa | 0 mm | - | 46 W/m² | - |
| 1777414863 | 16.67° C | 47% | 1017.6 hPa | 0 mm | - | 51 W/m² | - |
| 1777414562 | 17.22° C | 47% | 1017.2 hPa | 0 mm | - | 56 W/m² | - |
| 1777414262 | 17.22° C | 46% | 1017.2 hPa | 0 mm | - | 59 W/m² | - |
| 1777413957 | 17.22° C | 45% | 1017.3 hPa | 0 mm | - | 68 W/m² | - |
| 1777413653 | 17.22° C | 44% | 1017.3 hPa | 0 mm | - | 78 W/m² | - |
| 1777413349 | 17.78° C | 44% | 1017.6 hPa | 0 mm | - | 91 W/m² | - |
| 1777413045 | 17.78° C | 45% | 1017.3 hPa | 0 mm | - | 96 W/m² | - |
| 1777412740 | 17.78° C | 45% | 1017.3 hPa | 0 mm | - | 104 W/m² | - |
| 1777412438 | 17.78° C | 44% | 1017.2 hPa | 0 mm | - | 113 W/m² | - |
| 1777412137 | 17.78° C | 43% | 1017.3 hPa | 0 mm | - | 123 W/m² | - |
| 1777411833 | 17.78° C | 44% | 1017.5 hPa | 0 mm | - | 128 W/m² | - |
| 1777411531 | 18.33° C | 43% | 1017.6 hPa | 0 mm | - | 135 W/m² | - |
| 1777411226 | 18.33° C | 44% | 1017.3 hPa | 0 mm | - | 137 W/m² | - |
| 1777410920 | 18.33° C | 41% | 1017.7 hPa | 0 mm | - | 145 W/m² | - |
| 1777410620 | 18.89° C | 41% | 1017.5 hPa | 0 mm | - | 155 W/m² | - |
| 1777410315 | 18.89° C | 42% | 1017.8 hPa | 0 mm | - | 164 W/m² | - |
| 1777410009 | 18.89° C | 41% | 1017.6 hPa | 0 mm | - | 167 W/m² | - |
* Rain latest hour (hover to see other rain measurements)
** Current wind speed in m/s (hover to see current wind gust speed)